QPF
0.00 0.00 0.01 0.02 0.03 0.04 0.06 0.08 0.08 0.11 0.10 0.08 0.08 0.09 0.07 0.07 0.06 0.04 0.04 0.07 0.07 0.08 0.08 0.06 0.07 0.06 0.05 0.07 0.06 0.05 0.05 0.04 0.03 0.05 0.05 0.04 0.02 0.03 0.05 0.04 0.05 0.03 0.04
0.00 0.00 0.01 0.01 0.02 0.03 0.04 0.05 0.06 0.07 0.07 0.07 0.09 0.09 0.10 0.08 0.07 0.05 0.06 0.06 0.06 0.07 0.07 0.08 0.08 0.07 0.08 0.06 0.05 0.05 0.04 0.03 0.03 0.04 0.05 0.05 0.05 0.04 0.02 0.03 0.04 0.03 0.04
0.01 0.01 0.01 0.01 0.01 0.02 0.03 0.05 0.07 0.08 0.08 0.08 0.11 0.13 0.16 0.14 0.11 0.07 0.06 0.05 0.06 0.07 0.08 0.10 0.10 0.08 0.07 0.06 0.06 0.04 0.04 0.04 0.03 0.03 0.03 0.03 0.03 0.03 0.02 0.02 0.01 0.02 0.05
0.01 0.01 0.01 0.01 0.01 0.02 0.03 0.07 0.09 0.10 0.11 0.09 0.10 0.13 0.17 0.12 0.09 0.08 0.06 0.07 0.07 0.08 0.09 0.09 0.11 0.09 0.06 0.07 0.05 0.04 0.04 0.05 0.05 0.03 0.02 0.02 0.03 0.03 0.03 0.03 0.02 0.01 0.03
0.00 0.01 0.01 0.01 0.01 0.02 0.04 0.09 0.09 0.11 0.14 0.11 0.10 0.14 0.17 0.14 0.09 0.08 0.08 0.08 0.08 0.07 0.07 0.07 0.08 0.09 0.06 0.07 0.05 0.04 0.04 0.03 0.03 0.03 0.02 0.02 0.03 0.02 0.03 0.05 0.04 0.02 0.02
0.00 0.00 0.00 0.01 0.01 0.01 0.04 0.07 0.09 0.08 0.09 0.09 0.08 0.09 0.09 0.09 0.08 0.06 0.07 0.09 0.08 0.07 0.07 0.06 0.09 0.09 0.08 0.08 0.06 0.05 0.04 0.04 0.03 0.02 0.02 0.03 0.03 0.02 0.02 0.03 0.04 0.03 0.02
0.00 0.00 0.01 0.01 0.01 0.01 0.02 0.04 0.06 0.07 0.06 0.06 0.06 0.08 0.10 0.10 0.08 0.07 0.07 0.08 0.09 0.07 0.07 0.06 0.07 0.07 0.08 0.08 0.07 0.06 0.04 0.04 0.03 0.03 0.02 0.03 0.02 0.01 0.02 0.02 0.02 0.03 0.02
0.00 0.01 0.01 0.00 0.00 0.01 0.02 0.03 0.04 0.04 0.05 0.06 0.06 0.09 0.10 0.10 0.08 0.07 0.06 0.08 0.09 0.07 0.07 0.06 0.06 0.07 0.07 0.06 0.05 0.04 0.04 0.04 0.04 0.03 0.04 0.03 0.01 0.01 0.01 0.01 0.02 0.03 0.02
0.00 0.00 0.00 0.00 0.00 0.01 0.02 0.03 0.03 0.04 0.04 0.05 0.05 0.07 0.08 0.09 0.10 0.08 0.07 0.06 0.08 0.08 0.07 0.06 0.06 0.07 0.07 0.07 0.07 0.05 0.05 0.05 0.04 0.03 0.03 0.02 0.02 0.01 0.00 0.00 0.01 0.02 0.02
0.00 0.00 0.00 0.00 0.01 0.01 0.01 0.02 0.03 0.03 0.03 0.04 0.05 0.06 0.08 0.09 0.10 0.09 0.07 0.06 0.08 0.08 0.08 0.08 0.07 0.07 0.07 0.08 0.08 0.07 0.07 0.07 0.05 0.03 0.03 0.03 0.02 0.02 0.01 0.01 0.01 0.01 0.01
0.00 0.00 0.00 0.00 0.01 0.00 0.01 0.02 0.03 0.03 0.03 0.03 0.04 0.06 0.07 0.09 0.12 0.11 0.10 0.08 0.08 0.07 0.07 0.09 0.12 0.10 0.08 0.07 0.08 0.08 0.07 0.07 0.07 0.05 0.04 0.04 0.03 0.03 0.02 0.02 0.02 0.02 0.03
0.00 0.00 0.00 0.00 0.00 0.01 0.01 0.01 0.03 0.03 0.02 0.03 0.05 0.07 0.06 0.07 0.12 0.12 0.13 0.14 0.10 0.08 0.09 0.07 0.08 0.07 0.06 0.06 0.06 0.06 0.07 0.08 0.09 0.08 0.06 0.05 0.04 0.04 0.04 0.04 0.05 0.05 0.06
0.00 0.00 0.00 0.00 0.00 0.01 0.01 0.01 0.02 0.02 0.02 0.03 0.05 0.06 0.06 0.06 0.08 0.09 0.10 0.14 0.14 0.11 0.11 0.10 0.08 0.07 0.05 0.05 0.05 0.06 0.05 0.06 0.07 0.08 0.09 0.09 0.09 0.08 0.08 0.08 0.07 0.06 0.05
0.00 0.01 0.00 0.00 0.00 0.00 0.01 0.01 0.01 0.02 0.02 0.03 0.04 0.05 0.06 0.07 0.07 0.08 0.07 0.10 0.13 0.14 0.13 0.12 0.10 0.09 0.08 0.08 0.09 0.09 0.09 0.09 0.09 0.09 0.09 0.09 0.09 0.08 0.07 0.07 0.06 0.06 0.07
0.00 0.00 0.01 0.01 0.01 0.01 0.02 0.02 0.02 0.02 0.02 0.04 0.05 0.06 0.07 0.09 0.10 0.10 0.07 0.08 0.09 0.12 0.13 0.13 0.12 0.12 0.11 0.11 0.12 0.12 0.12 0.11 0.11 0.10 0.10 0.09 0.09 0.10 0.09 0.09 0.10 0.09 0.10
0.00 0.00 0.00 0.01 0.01 0.02 0.01 0.01 0.02 0.02 0.03 0.10 0.10 0.08 0.10 0.10 0.10 0.09 0.09 0.09 0.09 0.10 0.11 0.11 0.11 0.12 0.13 0.14 0.14 0.15 0.16 0.15 0.13 0.10 0.08 0.07 0.06 0.06 0.06 0.06 0.06 0.07 0.07
0.00 0.01 0.01 0.00 0.01 0.01 0.01 0.02 0.02 0.02 0.03 0.06 0.09 0.10 0.11 0.09 0.08 0.07 0.08 0.08 0.08 0.09 0.10 0.11 0.11 0.12 0.14 0.16 0.16 0.16 0.15 0.15 0.14 0.13 0.12 0.10 0.07 0.05 0.05 0.05 0.04 0.04 0.04
0.00 0.01 0.01 0.01 0.01 0.01 0.01 0.01 0.01 0.01 0.01 0.02 0.05 0.10 0.12 0.09 0.07 0.06 0.07 0.07 0.08 0.08 0.09 0.10 0.08 0.09 0.10 0.12 0.11 0.12 0.12 0.13 0.13 0.11 0.10 0.09 0.07 0.05 0.05 0.05 0.05 0.04 0.04
0.01 0.01 0.01 0.01 0.01 0.01 0.01 0.01 0.01 0.01 0.01 0.04 0.08 0.09 0.08 0.09 0.11 0.10 0.09 0.09 0.09 0.08 0.09 0.09 0.09 0.08 0.08 0.08 0.07 0.06 0.06 0.07 0.08 0.07 0.07 0.07 0.06 0.05 0.04 0.04 0.04 0.04 0.04
0.01 0.01 0.01 0.02 0.01 0.01 0.02 0.01 0.02 0.02 0.02 0.04 0.08 0.09 0.08 0.07 0.08 0.10 0.11 0.11 0.11 0.09 0.09 0.11 0.12 0.11 0.09 0.09 0.08 0.07 0.07 0.07 0.07 0.07 0.07 0.07 0.06 0.05 0.04 0.04 0.04 0.05 0.05
0.01 0.02 0.02 0.02 0.02 0.03 0.03 0.03 0.03 0.05 0.04 0.04 0.04 0.05 0.06 0.06 0.08 0.09 0.10 0.11 0.13 0.14 0.14 0.13 0.12 0.11 0.12 0.13 0.12 0.09 0.06 0.06 0.05 0.05 0.04 0.04 0.04 0.03 0.02 0.02 0.02 0.03 0.03
0.02 0.02 0.03 0.03 0.03 0.04 0.05 0.05 0.04 0.04 0.05 0.05 0.05 0.05 0.07 0.08 0.08 0.09 0.10 0.12 0.14 0.17 0.18 0.15 0.11 0.09 0.10 0.10 0.09 0.07 0.05 0.04 0.03 0.02 0.02 0.01 0.01 0.00 0.00 0.00 0.00 0.00 0.00
0.01 0.01 0.02 0.03 0.04 0.05 0.04 0.04 0.04 0.04 0.05 0.05 0.06 0.08 0.11 0.11 0.11 0.11 0.13 0.16 0.14 0.12 0.13 0.13 0.12 0.10 0.07 0.06 0.06 0.05 0.04 0.04 0.02 0.02 0.02 0.02 0.01 0.01 0.01 0.01 0.00 0.00 0.00
0.02 0.02 0.03 0.04 0.06 0.07 0.05 0.04 0.04 0.04 0.05 0.06 0.07 0.07 0.08 0.10 0.10 0.10 0.11 0.12 0.11 0.12 0.13 0.14 0.13 0.11 0.09 0.06 0.05 0.04 0.04 0.04 0.04 0.04 0.04 0.04 0.03 0.02 0.02 0.01 0.01 0.01 0.00
0.06 0.05 0.05 0.05 0.06 0.06 0.06 0.06 0.06 0.06 0.06 0.08 0.08 0.09 0.10 0.11 0.11 0.11 0.12 0.12 0.12 0.13 0.13 0.13 0.13 0.12 0.12 0.11 0.10 0.09 0.10 0.09 0.08 0.07 0.05 0.04 0.03 0.03 0.02 0.02 0.01 0.01 0.01
0.04 0.05 0.05 0.05 0.04 0.04 0.05 0.07 0.08 0.09 0.10 0.11 0.10 0.10 0.11 0.11 0.10 0.10 0.11 0.13 0.13 0.15 0.15 0.15 0.14 0.14 0.13 0.13 0.13 0.12 0.11 0.10 0.07 0.05 0.04 0.03 0.03 0.02 0.02 0.01 0.01 0.01 0.00
MSLP
1008.47 1008.96 1009.44 1009.92 1010.41 1010.91 1011.45 1012.03 1012.62 1013.20 1013.73 1014.17 1014.50 1014.71 1014.82 1014.88 1014.93 1015.02 1015.18 1015.44 1015.80 1016.22 1016.68 1017.13 1017.53 1017.88 1018.16 1018.39 1018.58 1018.76 1018.94 1019.14 1019.34 1019.53 1019.69 1019.80 1019.86 1019.86 1019.81 1019.75 1019.70 1019.69 1019.73
1008.50 1008.96 1009.42 1009.87 1010.32 1010.79 1011.30 1011.85 1012.44 1013.03 1013.59 1014.06 1014.43 1014.67 1014.81 1014.86 1014.88 1014.93 1015.05 1015.26 1015.57 1015.97 1016.42 1016.88 1017.31 1017.69 1018.00 1018.25 1018.45 1018.63 1018.80 1018.97 1019.16 1019.33 1019.49 1019.61 1019.68 1019.69 1019.66 1019.60 1019.54 1019.49 1019.49
1008.57 1009.01 1009.45 1009.86 1010.27 1010.69 1011.16 1011.67 1012.23 1012.81 1013.37 1013.87 1014.27 1014.55 1014.71 1014.78 1014.80 1014.83 1014.91 1015.08 1015.35 1015.71 1016.14 1016.60 1017.04 1017.43 1017.76 1018.03 1018.24 1018.41 1018.57 1018.74 1018.90 1019.08 1019.24 1019.37 1019.47 1019.52 1019.53 1019.49 1019.44 1019.39 1019.36
1008.67 1009.10 1009.51 1009.90 1010.27 1010.64 1011.05 1011.50 1012.01 1012.56 1013.11 1013.61 1014.03 1014.34 1014.53 1014.63 1014.67 1014.70 1014.77 1014.91 1015.15 1015.48 1015.88 1016.32 1016.76 1017.16 1017.50 1017.78 1018.00 1018.17 1018.33 1018.49 1018.66 1018.83 1019.01 1019.17 1019.31 1019.41 1019.45 1019.46 1019.43 1019.38 1019.34
1008.76 1009.19 1009.61 1009.98 1010.31 1010.64 1010.98 1011.37 1011.81 1012.30 1012.81 1013.29 1013.72 1014.06 1014.29 1014.43 1014.50 1014.55 1014.62 1014.76 1014.98 1015.28 1015.66 1016.07 1016.50 1016.90 1017.25 1017.53 1017.77 1017.96 1018.13 1018.29 1018.46 1018.65 1018.85 1019.04 1019.21 1019.35 1019.44 1019.49 1019.49 1019.45 1019.41
1008.82 1009.27 1009.69 1010.07 1010.38 1010.67 1010.96 1011.27 1011.64 1012.05 1012.50 1012.95 1013.37 1013.72 1013.98 1014.16 1014.28 1014.37 1014.47 1014.61 1014.82 1015.11 1015.46 1015.86 1016.27 1016.67 1017.02 1017.32 1017.57 1017.78 1017.97 1018.15 1018.34 1018.54 1018.76 1018.97 1019.17 1019.34 1019.47 1019.54 1019.57 1019.55 1019.51
1008.83 1009.30 1009.75 1010.14 1010.46 1010.72 1010.96 1011.21 1011.49 1011.83 1012.20 1012.60 1012.98 1013.33 1013.61 1013.84 1014.00 1014.14 1014.28 1014.45 1014.67 1014.95 1015.29 1015.67 1016.06 1016.45 1016.81 1017.12 1017.40 1017.63 1017.85 1018.05 1018.26 1018.48 1018.71 1018.93 1019.15 1019.33 1019.47 1019.57 1019.61 1019.61 1019.58
1008.76 1009.27 1009.75 1010.17 1010.50 1010.76 1010.97 1011.16 1011.37 1011.62 1011.91 1012.24 1012.58 1012.90 1013.20 1013.46 1013.67 1013.86 1014.05 1014.25 1014.49 1014.78 1015.11 1015.47 1015.86 1016.24 1016.60 1016.93 1017.22 1017.49 1017.74 1017.97 1018.20 1018.43 1018.66 1018.88 1019.09 1019.27 1019.41 1019.51 1019.57 1019.58 1019.57
1008.62 1009.16 1009.69 1010.14 1010.50 1010.76 1010.95 1011.10 1011.25 1011.42 1011.63 1011.89 1012.17 1012.47 1012.76 1013.04 1013.30 1013.54 1013.77 1014.02 1014.28 1014.58 1014.91 1015.26 1015.63 1016.01 1016.37 1016.71 1017.03 1017.33 1017.61 1017.87 1018.12 1018.35 1018.58 1018.78 1018.97 1019.13 1019.26 1019.35 1019.42 1019.45 1019.47
1008.44 1009.01 1009.57 1010.06 1010.44 1010.72 1010.90 1011.03 1011.12 1011.23 1011.37 1011.56 1011.79 1012.05 1012.33 1012.62 1012.91 1013.19 1013.47 1013.75 1014.05 1014.36 1014.69 1015.04 1015.40 1015.76 1016.13 1016.48 1016.82 1017.15 1017.46 1017.74 1018.01 1018.25 1018.46 1018.65 1018.81 1018.95 1019.05 1019.14 1019.21 1019.27 1019.33
1008.28 1008.87 1009.44 1009.94 1010.35 1010.64 1010.83 1010.94 1011.00 1011.06 1011.15 1011.28 1011.45 1011.68 1011.94 1012.24 1012.54 1012.86 1013.18 1013.50 1013.82 1014.15 1014.48 1014.82 1015.18 1015.53 1015.90 1016.26 1016.62 1016.97 1017.31 1017.62 1017.90 1018.15 1018.36 1018.54 1018.68 1018.79 1018.88 1018.96 1019.04 1019.14 1019.24
1008.21 1008.79 1009.36 1009.86 1010.26 1010.56 1010.75 1010.85 1010.91 1010.94 1010.99 1011.07 1011.21 1011.40 1011.65 1011.94 1012.26 1012.60 1012.94 1013.29 1013.64 1013.98 1014.33 1014.67 1015.01 1015.37 1015.73 1016.10 1016.48 1016.85 1017.22 1017.56 1017.87 1018.13 1018.35 1018.52 1018.65 1018.76 1018.84 1018.93 1019.03 1019.16 1019.32
1008.30 1008.85 1009.38 1009.85 1010.24 1010.52 1010.71 1010.81 1010.85 1010.87 1010.90 1010.96 1011.07 1011.24 1011.47 1011.76 1012.08 1012.44 1012.81 1013.19 1013.56 1013.92 1014.27 1014.61 1014.96 1015.31 1015.68 1016.06 1016.45 1016.86 1017.25 1017.63 1017.97 1018.27 1018.51 1018.70 1018.85 1018.96 1019.06 1019.16 1019.29 1019.45 1019.65
1008.60 1009.09 1009.56 1009.97 1010.31 1010.56 1010.73 1010.82 1010.86 1010.88 1010.90 1010.95 1011.05 1011.21 1011.43 1011.71 1012.04 1012.41 1012.81 1013.21 1013.60 1013.98 1014.34 1014.70 1015.05 1015.41 1015.78 1016.18 1016.60 1017.03 1017.47 1017.89 1018.28 1018.62 1018.90 1019.13 1019.31 1019.45 1019.58 1019.71 1019.87 1020.06 1020.29
1009.11 1009.52 1009.90 1010.23 1010.49 1010.69 1010.82 1010.90 1010.94 1010.95 1010.98 1011.03 1011.12 1011.28 1011.49 1011.78 1012.12 1012.51 1012.92 1013.35 1013.77 1014.17 1014.56 1014.94 1015.31 1015.68 1016.08 1016.50 1016.94 1017.41 1017.89 1018.36 1018.81 1019.21 1019.55 1019.83 1020.06 1020.25 1020.41 1020.58 1020.76 1020.97 1021.22
1009.80 1010.12 1010.39 1010.61 1010.77 1010.89 1010.97 1011.02 1011.04 1011.05 1011.08 1011.13 1011.24 1011.40 1011.62 1011.92 1012.28 1012.69 1013.13 1013.59 1014.05 1014.49 1014.92 1015.33 1015.73 1016.13 1016.55 1017.00 1017.48 1017.99 1018.52 1019.04 1019.55 1020.01 1020.42 1020.77 1021.05 1021.29 1021.50 1021.69 1021.89 1022.12 1022.36
1010.59 1010.80 1010.95 1011.05 1011.10 1011.12 1011.13 1011.12 1011.11 1011.12 1011.15 1011.21 1011.33 1011.51 1011.76 1012.08 1012.47 1012.91 1013.40 1013.90 1014.41 1014.91 1015.38 1015.84 1016.29 1016.74 1017.20 1017.69 1018.20 1018.75 1019.32 1019.90 1020.46 1020.98 1021.45 1021.85 1022.19 1022.48 1022.72 1022.93 1023.14 1023.36 1023.59
1011.38 1011.48 1011.50 1011.47 1011.40 1011.31 1011.23 1011.16 1011.11 1011.09 1011.12 1011.19 1011.33 1011.54 1011.83 1012.19 1012.63 1013.13 1013.68 1014.25 1014.82 1015.39 1015.94 1016.46 1016.97 1017.47 1017.98 1018.51 1019.07 1019.65 1020.26 1020.87 1021.47 1022.04 1022.55 1022.99 1023.37 1023.68 1023.94 1024.16 1024.37 1024.56 1024.75
1012.05 1012.05 1011.95 1011.79 1011.59 1011.40 1011.22 1011.07 1010.97 1010.93 1010.95 1011.04 1011.21 1011.46 1011.81 1012.24 1012.75 1013.32 1013.95 1014.61 1015.27 1015.93 1016.56 1017.16 1017.74 1018.31 1018.87 1019.44 1020.03 1020.64 1021.27 1021.90 1022.52 1023.10 1023.62 1024.08 1024.47 1024.78 1025.04 1025.25 1025.43 1025.59 1025.73
1012.55 1012.46 1012.25 1011.97 1011.66 1011.36 1011.08 1010.86 1010.71 1010.64 1010.66 1010.77 1010.99 1011.30 1011.71 1012.23 1012.83 1013.51 1014.23 1014.99 1015.76 1016.52 1017.24 1017.93 1018.59 1019.22 1019.83 1020.44 1021.06 1021.68 1022.31 1022.93 1023.53 1024.09 1024.60 1025.05 1025.41 1025.71 1025.93 1026.11 1026.25 1026.36 1026.46
1012.86 1012.69 1012.40 1012.03 1011.62 1011.21 1010.85 1010.57 1010.38 1010.29 1010.32 1010.46 1010.73 1011.11 1011.62 1012.23 1012.94 1013.73 1014.57 1015.45 1016.32 1017.18 1018.00 1018.78 1019.51 1020.20 1020.86 1021.49 1022.11 1022.73 1023.33 1023.92 1024.47 1024.99 1025.45 1025.84 1026.16 1026.41 1026.59 1026.72 1026.81 1026.87 1026.92
1013.02 1012.80 1012.44 1012.00 1011.52 1011.05 1010.63 1010.29 1010.07 1009.98 1010.03 1010.21 1010.55 1011.02 1011.62 1012.34 1013.17 1014.07 1015.03 1016.01 1016.99 1017.94 1018.85 1019.70 1020.49 1021.22 1021.91 1022.55 1023.15 1023.74 1024.29 1024.82 1025.31 1025.75 1026.13 1026.45 1026.70 1026.89 1027.01 1027.08 1027.13 1027.15 1027.15
1013.10 1012.86 1012.47 1011.99 1011.47 1010.96 1010.51 1010.15 1009.93 1009.85 1009.93 1010.17 1010.58 1011.13 1011.84 1012.66 1013.59 1014.60 1015.65 1016.73 1017.79 1018.81 1019.78 1020.68 1021.51 1022.26 1022.94 1023.56 1024.14 1024.67 1025.16 1025.60 1026.01 1026.36 1026.65 1026.88 1027.05 1027.17 1027.23 1027.26 1027.26 1027.24 1027.22
1013.22 1012.97 1012.59 1012.11 1011.59 1011.08 1010.63 1010.28 1010.07 1010.02 1010.14 1010.45 1010.92 1011.56 1012.35 1013.26 1014.27 1015.35 1016.47 1017.60 1018.71 1019.77 1020.76 1021.67 1022.50 1023.24 1023.90 1024.48 1025.00 1025.46 1025.87 1026.23 1026.53 1026.79 1026.99 1027.14 1027.24 1027.29 1027.30 1027.30 1027.27 1027.24 1027.21
1013.45 1013.24 1012.88 1012.44 1011.95 1011.47 1011.06 1010.74 1010.57 1010.57 1010.75 1011.10 1011.64 1012.34 1013.18 1014.15 1015.20 1016.32 1017.46 1018.60 1019.71 1020.76 1021.73 1022.62 1023.41 1024.10 1024.71 1025.23 1025.68 1026.06 1026.39 1026.65 1026.87 1027.03 1027.15 1027.23 1027.28 1027.29 1027.28 1027.25 1027.22 1027.20 1027.17
1013.85 1013.68 1013.39 1013.01 1012.59 1012.18 1011.82 1011.57 1011.45 1011.50 1011.72 1012.12 1012.70 1013.43 1014.29 1015.27 1016.32 1017.42 1018.53 1019.63 1020.69 1021.69 1022.60 1023.42 1024.15 1024.78 1025.31 1025.76 1026.13 1026.43 1026.67 1026.85 1026.99 1027.09 1027.15 1027.18 1027.20 1027.20 1027.19 1027.18 1027.17 1027.17 1027.17
Thickness
5799 5794 5789 5784 5777 5771 5765 5760 5755 5751 5746 5742 5739 5738 5737 5737 5739 5740 5739 5739 5738 5738 5737 5740 5738 5737 5738 5736 5736 5734 5732 5732 5733 5731 5729 5732 5734 5732 5731 5730 5730 5729 5726
5796 5791 5787 5782 5777 5771 5766 5760 5755 5752 5747 5744 5741 5740 5740 5738 5739 5739 5738 5738 5738 5737 5738 5737 5738 5737 5736 5734 5734 5732 5733 5733 5733 5730 5727 5725 5727 5729 5734 5731 5729 5729 5728
5794 5790 5786 5782 5777 5771 5766 5762 5757 5753 5748 5744 5740 5738 5736 5735 5736 5736 5737 5738 5737 5736 5736 5737 5737 5736 5736 5735 5732 5732 5730 5730 5732 5733 5729 5724 5723 5728 5732 5732 5732 5730 5729
5796 5791 5786 5781 5777 5773 5769 5762 5757 5752 5748 5744 5740 5737 5735 5734 5737 5737 5737 5737 5736 5735 5735 5735 5735 5735 5736 5734 5733 5733 5732 5730 5729 5730 5730 5730 5731 5725 5726 5730 5733 5732 5730
5796 5791 5787 5783 5779 5774 5769 5763 5757 5752 5748 5744 5741 5738 5737 5737 5737 5737 5735 5734 5734 5734 5735 5734 5734 5733 5734 5734 5732 5731 5730 5732 5730 5730 5730 5729 5728 5729 5726 5723 5728 5730 5732
5794 5790 5787 5782 5777 5773 5768 5763 5757 5752 5748 5744 5742 5740 5738 5737 5735 5733 5732 5732 5732 5733 5733 5733 5732 5732 5732 5731 5730 5730 5729 5730 5730 5730 5731 5729 5728 5727 5727 5724 5723 5725 5729
5792 5787 5783 5778 5774 5770 5766 5762 5757 5752 5749 5745 5743 5741 5739 5737 5734 5733 5732 5731 5731 5731 5731 5732 5731 5731 5729 5729 5728 5727 5729 5728 5726 5726 5728 5730 5730 5730 5728 5725 5724 5724 5726
5791 5786 5781 5777 5773 5769 5765 5760 5756 5752 5749 5746 5743 5741 5739 5737 5736 5735 5734 5732 5732 5732 5731 5729 5729 5728 5727 5727 5726 5727 5726 5726 5725 5725 5725 5725 5727 5729 5728 5725 5722 5718 5720
5788 5784 5780 5776 5772 5767 5763 5760 5755 5751 5748 5746 5743 5740 5738 5737 5737 5735 5732 5732 5730 5730 5728 5727 5726 5725 5725 5725 5723 5723 5722 5723 5723 5723 5722 5722 5725 5724 5725 5724 5722 5716 5711
5786 5782 5778 5774 5771 5767 5762 5758 5754 5750 5748 5745 5743 5741 5738 5736 5735 5733 5731 5730 5729 5727 5726 5724 5724 5723 5722 5721 5719 5719 5719 5718 5718 5718 5717 5716 5720 5720 5719 5719 5718 5716 5712
5784 5779 5775 5772 5768 5764 5760 5755 5752 5749 5747 5745 5743 5740 5737 5735 5732 5730 5729 5728 5726 5724 5722 5722 5721 5719 5719 5718 5716 5717 5715 5714 5713 5713 5712 5710 5711 5712 5712 5712 5711 5710 5708
5781 5777 5772 5767 5763 5760 5757 5753 5750 5748 5746 5744 5741 5738 5735 5732 5730 5728 5727 5725 5723 5722 5720 5719 5717 5716 5715 5715 5714 5712 5711 5710 5708 5708 5706 5705 5705 5703 5704 5703 5703 5702 5700
5775 5772 5767 5763 5759 5757 5754 5752 5749 5747 5745 5742 5738 5735 5732 5729 5727 5725 5724 5722 5720 5718 5716 5715 5713 5712 5711 5710 5709 5708 5706 5704 5703 5701 5699 5698 5697 5695 5695 5694 5694 5693 5693
5769 5766 5762 5759 5756 5754 5752 5749 5747 5745 5742 5739 5735 5731 5729 5727 5725 5722 5721 5718 5716 5714 5712 5711 5709 5708 5706 5704 5703 5701 5698 5696 5694 5693 5691 5689 5688 5686 5684 5683 5682 5681 5680
5764 5761 5758 5755 5752 5750 5748 5747 5745 5742 5739 5735 5731 5728 5726 5724 5721 5719 5716 5714 5712 5710 5707 5706 5704 5702 5700 5699 5697 5694 5691 5687 5684 5681 5678 5676 5674 5672 5672 5672 5670 5669 5667
5759 5757 5755 5752 5748 5747 5745 5743 5741 5738 5735 5732 5728 5726 5723 5720 5716 5714 5711 5708 5706 5703 5701 5699 5697 5696 5694 5690 5687 5685 5682 5678 5674 5669 5666 5663 5660 5658 5656 5654 5653 5653 5652
5755 5753 5750 5748 5746 5744 5742 5739 5737 5733 5730 5727 5725 5722 5719 5715 5711 5708 5705 5701 5698 5696 5693 5691 5689 5686 5682 5679 5677 5674 5672 5667 5663 5659 5655 5653 5648 5646 5644 5641 5639 5636 5633
5748 5746 5745 5743 5742 5740 5738 5735 5732 5728 5725 5722 5719 5716 5712 5708 5704 5700 5696 5693 5691 5687 5684 5681 5679 5675 5670 5668 5666 5663 5661 5656 5651 5647 5643 5641 5637 5634 5632 5629 5625 5621 5617
5742 5740 5740 5739 5737 5734 5732 5729 5725 5722 5718 5715 5713 5710 5706 5701 5697 5692 5688 5685 5682 5678 5674 5670 5667 5663 5658 5656 5654 5653 5649 5644 5638 5634 5630 5628 5624 5619 5618 5616 5611 5607 5602
5733 5732 5732 5731 5728 5726 5725 5721 5718 5715 5711 5709 5707 5704 5700 5696 5691 5686 5681 5676 5673 5668 5664 5659 5656 5652 5647 5643 5642 5641 5639 5633 5627 5621 5616 5612 5609 5606 5604 5603 5598 5593 5589
5722 5723 5722 5721 5718 5717 5715 5712 5710 5707 5705 5703 5699 5695 5691 5687 5683 5678 5673 5668 5663 5658 5652 5648 5643 5638 5635 5631 5629 5628 5627 5622 5616 5611 5604 5597 5594 5591 5589 5587 5583 5577 5575
5712 5712 5711 5709 5708 5707 5705 5702 5699 5698 5696 5693 5689 5685 5681 5678 5673 5668 5663 5658 5653 5647 5640 5636 5630 5625 5620 5617 5615 5613 5612 5609 5604 5598 5591 5584 5580 5576 5573 5570 5565 5562 5560
5702 5702 5701 5698 5697 5696 5695 5692 5689 5688 5685 5681 5677 5673 5668 5664 5660 5656 5651 5646 5642 5638 5632 5626 5620 5614 5608 5603 5601 5598 5596 5593 5589 5581 5574 5569 5565 5562 5558 5553 5550 5549 5548
5692 5692 5690 5688 5685 5684 5683 5681 5679 5677 5674 5669 5665 5660 5655 5649 5645 5642 5639 5636 5631 5627 5621 5616 5610 5603 5598 5593 5590 5586 5581 5577 5573 5567 5560 5556 5553 5549 5544 5540 5538 5534 5529
5681 5680 5678 5676 5674 5673 5671 5669 5668 5666 5662 5657 5652 5647 5642 5637 5630 5626 5621 5619 5614 5614 5611 5605 5600 5595 5588 5580 5577 5576 5572 5568 5562 5556 5553 5549 5544 5540 5534 5529 5524 5519 5515
5669 5668 5666 5664 5662 5661 5659 5657 5656 5654 5651 5646 5641 5636 5630 5624 5618 5612 5603 5597 5596 5594 5592 5589 5586 5578 5573 5567 5563 5559 5556 5552 5548 5546 5543 5538 5533 5528 5523 5518 5512 5506 5500